MOLNIYA 3-24

Last updated on Oct. 29, 2020, 5:52 a.m. UTC

1 15738U 85040A   20301.81296820  .00000091  00000-0  00000-0 0  9993
2 15738  63.8344 184.8231 6511153 250.6922  31.9214  2.55628119288590
UTC
Height (km)
Latitude
Longitude
Inclination
Orbital Period
UTC large
Height (km)
Speed (km/s)
/
Latitude / Longitude
Inclination (degrees)
Orbital Period (minutes)
Azimuth
Elevation
Range (km)
Doppler Factor
iOS Compass Heading
iOS Angle

Next 30 passes for location: Hong Kong

Rise time Rise Azimuth (degrees) Set time Set Azimuth (degrees) Duration Max altitude (degrees)

No matching passes for this satellites